CW3224 Weather Reports


time (UTC)temp
F
wind
direction
speed
knots
gust
knots
rain 1hr
in
rain 24hr
in
rain mn
in
humidity
%
barometer
mb
20260902143914 65 65 0.0 0.0 0.00 0.47 0.00 94 1021.9
20260902142916 65 160 0.0 0.0 0.00 0.47 0.00 95 1021.8
20260902141912 65 301 0.0 0.0 0.00 0.47 0.00 95 1021.8
20260902140912 64 301 0.0 1.7 0.00 0.47 0.00 95 1021.4
20260902135912 64 301 0.0 2.6 0.00 0.47 0.00 95 1021.3
20260902134912 64 113 0.9 2.6 0.00 0.47 0.00 95 1021.3
20260902133910 63 45 0.0 2.6 0.00 0.47 0.00 95 1021.3
20260902133350 63 114 0.0 4.3 0.00 0.47 0.00 95 1021.2
20260902131908 63 46 0.9 4.3 0.00 0.47 0.00 95 1021.2
20260902130909 63 301 0.0 1.7 0.00 0.47 0.00 95 1021.3
20260902125909 62 140 0.0 1.7 0.00 0.47 0.00 95 1021.4
20260902124909 62 141 0.0 0.9 0.00 0.49 0.00 95 1021.4
20260902123908 62 301 0.0 0.0 0.00 0.49 0.00 95 1021.8
20260902122908 62 301 0.0 0.0 0.00 0.52 0.00 95 1021.5
20260902121908 62 301 0.0 0.0 0.00 0.56 0.00 95 1021.5
20260902120908 61 301 0.0 0.0 0.00 0.57 0.00 95 1021.6
20260902115909 61 301 0.0 0.0 0.00 0.57 0.00 95 1021.8
20260902114908 61 301 0.0 0.0 0.00 0.58 0.00 95 1021.8
20260902113909 61 301 0.0 0.0 0.00 0.58 0.00 95 1021.8
20260902112859 61 301 0.0 0.0 0.00 0.58 0.00 95 1021.5
20260902111859 61 141 0.0 0.0 0.00 0.58 0.00 95 1021.5
20260902110858 61 141 0.0 0.0 0.00 0.58 0.00 95 1021.7
20260902110820 61 141 0.0 0.0 0.00 0.58 0.00 95 1021.3
20260902104858 60 141 0.0 0.0 0.00 0.58 0.00 95 1021.3
20260902103858 60 141 0.0 0.0 0.00 0.58 0.00 95 1021.0
20260902102844 60 141 0.0 0.0 0.00 0.59 0.00 95 1021.1
20260902101845 60 141 0.0 0.0 0.00 0.59 0.00 95 1021.1
20260902100845 60 141 0.0 0.0 0.00 0.59 0.00 95 1020.8
20260902095844 60 141 0.0 0.0 0.00 0.59 0.00 95 1020.8
20260902094844 60 141 0.0 0.0 0.00 0.59 0.00 95 1020.8
20260902093846 60 141 0.0 0.0 0.00 0.60 0.00 95 1020.7
20260902092836 60 141 0.0 0.0 0.00 0.60 0.00 94 1020.5
20260902092315 60 141 0.0 0.0 0.00 0.60 0.00 94 1020.5
20260902090835 60 141 0.0 0.0 0.00 0.60 0.00 94 1020.3
20260902085836 60 141 0.0 0.0 0.00 0.60 0.00 94 1020.2
20260902084835 61 141 0.0 0.0 0.00 0.60 0.00 95 1020.2
20260902083834 61 141 0.0 0.0 0.00 0.60 0.00 95 1020.2
20260902082835 61 141 0.0 0.0 0.00 0.60 0.00 95 1020.3
20260902082311 61 141 0.0 0.0 0.00 0.60 0.00 95 1020.3
20260902080835 61 141 0.0 0.0 0.00 0.60 0.00 95 1020.3
20260902080311 61 141 0.0 0.0 0.00 0.60 0.00 95 1020.3
20260902074835 61 141 0.0 0.0 0.00 0.60 0.00 94 1020.3
20260902073823 61 141 0.0 0.0 0.00 0.60 0.00 94 1020.6
20260902072821 60 141 0.0 0.0 0.00 0.60 0.00 94 1020.4
20260902072257 60 141 0.0 0.0 0.00 0.60 0.00 94 1020.4
20260902070821 60 141 0.0 0.0 0.00 0.60 0.00 94 1020.3
20260902065820 60 141 0.0 0.0 0.00 0.60 0.00 94 1020.2
20260902064821 60 141 0.0 0.0 0.00 0.60 0.00 94 1020.2
20260902063817 60 141 0.0 0.0 0.00 0.60 0.00 94 1020.3
20260902062817 60 141 0.0 0.0 0.00 0.60 0.00 94 1020.3
20260902061817 60 141 0.0 0.0 0.00 0.60 0.00 94 1020.3
20260902060818 60 141 0.0 0.0 0.00 0.60 0.00 94 1020.3
20260902055817 60 141 0.0 0.0 0.00 0.60 0.00 94 1020.3
20260902054818 60 141 0.0 0.0 0.00 0.60 0.00 94 1020.3
20260902053813 60 141 0.0 0.0 0.00 0.60 0.00 94 1020.2
20260902052811 60 141 0.0 0.0 0.00 0.60 0.00 94 1020.2
20260902051811 60 141 0.0 0.0 0.00 0.60 0.00 94 1020.2
20260902050812 60 141 0.0 0.0 0.00 0.60 0.00 94 1019.8
20260902045809 60 141 0.0 0.0 0.00 0.60 0.00 94 1019.7
20260902044807 60 141 0.0 0.0 0.00 0.60 0.00 94 1019.7
20260902043809 60 141 0.0 0.0 0.00 0.60 0.00 94 1019.3
20260902042808 60 141 0.0 0.0 0.00 0.60 0.00 94 1019.4
20260902041807 60 141 0.0 0.0 0.00 0.60 0.00 94 1019.4
20260902040807 60 141 0.0 0.0 0.00 0.60 0.00 94 1019.2
20260902040248 60 141 0.0 0.0 0.00 0.60 0.60 94 1018.7
20260902034802 60 141 0.0 0.0 0.00 0.60 0.60 94 1018.7
20260902033803 60 141 0.0 0.0 0.00 0.60 0.60 94 1018.6
20260902032802 61 141 0.0 0.0 0.00 0.60 0.60 94 1018.7
20260902031802 61 141 0.0 0.0 0.00 0.60 0.60 94 1018.7
20260902031238 61 141 0.0 0.0 0.00 0.60 0.60 94 1018.8
20260902025800 61 141 0.0 0.0 0.00 0.60 0.60 94 1018.7
20260902024802 61 141 0.0 0.0 0.00 0.60 0.60 94 1018.7
20260902024734 61 141 0.0 0.0 0.00 0.60 0.60 94 1019.0
20260902023715 61 141 0.0 0.0 0.00 0.60 0.60 94 1019.1
20260902021801 61 141 0.0 0.0 0.00 0.60 0.60 94 1019.1
20260902020800 61 141 0.0 0.0 0.00 0.60 0.60 94 1019.1
20260902015750 61 141 0.0 0.0 0.00 0.60 0.60 94 1019.0
20260902014752 61 141 0.0 0.0 0.00 0.60 0.60 94 1019.0
20260902013751 61 141 0.0 0.0 0.00 0.60 0.60 94 1018.7
20260902013230 61 141 0.0 0.0 0.00 0.60 0.60 94 1018.7
20260902011754 61 141 0.0 0.0 0.00 0.60 0.60 94 1018.7
20260902010748 61 141 0.0 0.0 0.00 0.60 0.60 94 1018.9
20260902005746 61 141 0.0 0.0 0.00 0.60 0.60 94 1018.7
20260902004746 61 141 0.0 0.0 0.00 0.60 0.60 94 1018.7
20260902004232 62 141 0.0 0.0 0.00 0.60 0.60 93 1018.5
20260902002732 62 141 0.0 0.0 0.00 0.60 0.60 93 1018.3
20260902002209 62 141 0.0 0.0 0.00 0.60 0.60 94 1018.3
20260902000729 62 141 0.0 0.0 0.00 0.60 0.60 94 1018.2
20260901235726 62 141 0.0 0.0 0.00 0.60 0.60 94 1018.2
20260901235202 62 141 0.0 0.0 0.00 0.60 0.60 94 1018.2
20260901233724 62 141 0.0 0.0 0.00 0.60 0.60 94 1018.3
20260901232726 62 141 0.0 0.0 0.00 0.60 0.60 94 1018.4
20260901231724 62 141 0.0 0.0 0.00 0.60 0.60 94 1018.4
20260901230725 62 141 0.0 0.0 0.00 0.60 0.60 93 1018.2
20260901225724 62 141 0.0 0.0 0.00 0.60 0.60 93 1018.1
20260901224725 62 141 0.0 0.0 0.00 0.60 0.60 93 1018.1
20260901223725 62 141 0.0 0.0 0.00 0.60 0.60 93 1018.1
20260901222723 62 141 0.0 0.0 0.00 0.60 0.60 93 1018.2
20260901221713 62 141 0.0 0.0 0.00 0.60 0.60 93 1018.2
20260901221618 62 141 0.0 0.9 0.00 0.60 0.60 93 1018.1
20260901215713 62 141 0.0 0.9 0.01 0.60 0.60 93 1018.1
20260901215045 63 106 0.0 0.0 0.03 0.60 0.60 93 1017.8
20260901214712 62 141 0.0 4.3 0.01 0.60 0.60 93 1018.1
20260901213746 63 193 0.0 0.0 0.02 0.60 0.60 93 1017.8
20260901212154 63 156 0.0 2.6 0.04 0.60 0.60 93 1017.8
20260901210713 63 161 0.9 4.3 0.05 0.60 0.60 93 1017.7
20260901205703 64 173 0.9 5.2 0.05 0.59 0.59 93 1017.5
20260901204702 64 152 0.9 7.8 0.06 0.59 0.59 93 1017.5
20260901203702 64 112 0.0 2.6 0.06 0.58 0.58 93 1017.0
20260901202704 64 127 0.0 0.0 0.06 0.57 0.57 94 1017.0
20260901201702 64 41 0.0 1.7 0.07 0.56 0.56 93 1017.0
20260901200703 64 41 0.9 5.2 0.08 0.55 0.55 94 1017.0
20260901195652 65 91 0.0 2.6 0.09 0.54 0.54 94 1017.0
20260901194652 65 46 0.0 1.7 0.13 0.53 0.53 94 1017.0
20260901194129 64 47 0.0 3.5 0.20 0.52 0.52 93 1017.0
20260901192653 64 176 0.0 3.5 0.23 0.50 0.51 93 1017.0
20260901191652 64 150 0.0 1.7 0.28 0.49 0.49 93 1017.0
20260901190650 64 93 0.9 1.7 0.29 0.47 0.48 93 1017.0
20260901185651 64 48 0.9 3.5 0.28 0.45 0.46 93 1017.0
20260901184650 64 44 0.9 4.3 0.23 0.40 0.40 93 1017.0
20260901183650 64 15 0.9 2.6 0.15 0.32 0.33 93 1017.2
20260901182648 64 39 0.9 2.6 0.10 0.27 0.27 93 1017.2
20260901181647 64 28 0.0 2.6 0.04 0.21 0.21 93 1017.2
20260901181130 64 33 0.0 2.6 0.02 0.18 0.18 93 1017.0
20260901180137 64 47 0.0 0.0 0.01 0.17 0.17 93 1016.7
20260901174648 64 47 0.0 1.7 0.02 0.17 0.17 93 1016.7
20260901173647 64 52 0.0 2.6 0.04 0.17 0.17 93 1016.5
20260901172649 65 85 0.9 3.5 0.04 0.17 0.17 92 1016.6
20260901171649 65 67 0.9 3.5 0.04 0.17 0.17 92 1016.6
20260901170646 65 85 0.9 3.5 0.03 0.16 0.16 93 1016.5
20260901165645 65 43 0.0 0.0 0.03 0.16 0.16 93 1016.8
20260901164645 65 43 0.0 0.0 0.02 0.15 0.15 93 1016.8
20260901163646 65 43 0.0 2.6 0.00 0.13 0.13 93 1017.0
20260901162648 65 40 0.0 0.0 0.00 0.13 0.13 93 1017.0
20260901161635 66 23 0.9 2.6 0.00 0.13 0.13 93 1017.0
20260901160636 66 39 0.0 0.0 0.00 0.13 0.13 93 1016.6
20260901155635 66 39 0.0 0.0 0.00 0.13 0.13 93 1016.6
20260901154637 66 37 0.0 1.7 0.00 0.13 0.13 93 1016.6
20260901153637 66 38 0.9 2.6 0.00 0.13 0.13 93 1016.6
20260901153605 66 75 0.0 1.7 0.00 0.13 0.13 93 1016.7
20260901152540 66 47 0.0 0.0 0.00 0.13 0.13 93 1016.7
20260901150630 66 42 0.9 2.6 0.00 0.13 0.13 93 1017.0
20260901145634 67 41 0.0 2.6 0.00 0.13 0.13 93 1016.6
20260901144630 67 170 0.0 0.9 0.00 0.13 0.13 93 1016.6